User: anonymous
Location: Caltech
(34.1382°N, 118.1253°W)
Time: 21:13:26
(UTC-07:00)
Language:

Cosmos 1508 Rocket - Orbit

View from above orbital plane
View from above orbital plane
View from above satellite
View from above satellite

Ground track
Ground track

The orbit data is extracted from the following two-line orbital elements,

1 14484U 83111B   14263.81929944  .00048542  00000-0  67213-3 0  6427
2 14484 082.8364 236.3115 0193020 290.3098 112.1663 15.38060859587220
Epoch (UTC): 20 September 2014 19:39:47
Eccentricity: 0.0193020
inclination: 82.8364°
perigee height: 320 km
apogee height: 583 km
right ascension of ascending node: 236.3115°
argument of perigee: 290.3098°
revolutions per day: 15.38060859
mean anomaly at epoch: 112.1663°
orbit number at epoch: 58722

The dashed part of the orbit path shows where the satellite is in the earth's shadow,  

DLR